CAPE
0 0 0 0 0 0 0 0 0 0 0 0 0 0 0 0 0 0 0 0 0 0 0 0 0 0 0 0 207 1136 1517 1681 1780 2012 2074 2073 2250 2126 2030 2094 2251 2432 2456 2003 1958 2248 2408 2409 2220 1964 1981 2202 2138 2282 2340 2549 1603 1872 2551 1873 2130 2504 2627 2426 2168 2297 2337 2290 2122 1884 1848 1623 1445 1275 1449 1346 1208 1012 1114 1228 895 1175 1130 1338 1476 1596
0 0 0 0 0 0 0 0 0 0 0 0 0 0 0 0 0 0 0 0 0 0 0 0 0 0 0 0 295 1268 1498 1486 1623 1734 2098 2120 2169 2127 2024 2035 2226 2458 2147 2163 2201 2251 2496 2256 2238 2154 2170 2387 2364 2250 2238 2100 1860 1988 2129 2324 2242 2438 2544 2637 2605 2472 2279 2046 1865 1754 1498 1453 1140 1108 1024 985 1150 1268 1116 1201 1160 1076 1134 1296 1262 1226
0 0 0 0 0 0 0 0 0 0 0 0 0 0 0 0 0 0 0 0 0 0 0 0 0 0 0 2 439 1188 1309 1368 1581 1773 1983 2055 2122 1977 1788 2078 2195 2309 2456 2348 2230 2241 2397 2348 2254 2291 2125 2416 2266 2253 2185 2113 2169 2185 2172 2176 2589 2579 2669 2742 2621 2505 2092 1872 1884 1682 1432 1258 1098 1103 1050 925 1067 1186 1060 1252 982 1110 1171 1045 959 1067
0 0 0 0 0 0 0 0 0 0 0 0 0 0 0 0 0 0 0 0 0 0 0 0 0 6 55 124 643 1070 1004 1403 1619 1705 1868 2008 2041 2015 2167 2108 2200 2277 2380 2166 2187 2161 2388 2437 2308 2210 2320 2489 2356 2392 2254 2214 2274 2574 2380 2486 2619 2741 2742 2725 2510 2102 1918 1854 2134 2047 1849 1708 1174 1340 1624 1424 1280 963 827 864 963 975 1160 974 869 740
0 0 0 0 0 0 0 0 0 0 0 0 0 0 0 0 0 0 0 0 0 0 0 0 0 13 176 48 768 1211 1398 1513 1634 1651 1836 1930 1944 2238 2204 2146 2228 2210 2313 2332 2331 2264 2365 2399 2378 2523 2590 2500 2343 2292 2255 2316 2180 2247 2462 2681 2765 2837 2761 2533 2345 2046 1990 2001 2100 2246 2154 1913 1687 1410 1214 1082 914 777 379 165 483 591 999 824 727 706
0 0 0 0 0 0 0 0 0 0 0 0 0 0 0 0 0 0 0 0 0 0 0 2 0 0 53 74 250 1150 1535 1331 1429 1623 1770 1954 2190 2169 2238 2198 2270 2305 1999 2332 2453 2518 2644 2507 2444 2558 2519 2327 2297 2453 2418 2373 2294 2318 2349 2620 2834 2771 2581 2371 2362 2111 2040 2142 2029 1681 1391 1292 1301 1315 1266 1092 919 701 503 92 2 78 727 754 724 552
0 0 0 0 0 0 0 0 0 0 0 0 0 0 0 0 0 0 0 0 0 0 2 0 1 0 12 69 445 1272 1173 1426 1507 1606 1816 2000 2180 2184 2312 2315 2170 2157 2298 2054 2230 2472 2629 2766 2732 2621 2574 2507 2558 2407 2418 2541 2427 2770 2761 2810 2807 2974 2640 2605 2383 2197 2308 2194 1993 1811 1510 1392 1214 1128 1179 1058 841 656 228 61 109 102 586 655 672 583
0 0 0 0 0 0 0 0 0 0 0 0 0 0 0 0 0 0 0 0 0 0 0 0 0 0 0 0 227 953 1085 1356 1713 1558 1874 1963 2288 2375 2469 2571 2650 2614 2628 2455 2365 2312 2548 2804 2916 2795 2732 2819 2543 2509 2520 2465 2432 2708 2813 2931 2707 2793 2820 2746 2606 2379 2376 2238 2050 1848 1600 1276 1169 1168 1246 1184 957 574 217 87 50 142 268 574 473 470
0 0 0 0 0 0 0 0 0 0 0 2 0 0 0 0 0 0 0 0 0 0 0 0 0 0 0 50 19 338 563 720 1444 1712 1767 1957 2140 2472 2686 2656 2779 2842 2809 2772 2685 2661 2582 2639 2708 2708 2805 2858 2815 2776 2777 2800 2926 2929 2918 2956 2922 2860 2939 2711 2710 2594 2506 2220 2154 1925 1603 1430 1255 1134 1003 734 461 385 211 154 200 225 197 430 616 455
0 0 0 0 0 0 0 0 0 0 0 0 0 0 0 0 0 0 0 0 0 0 0 0 0 0 1 2 0 85 242 425 878 832 1423 1651 1964 2156 2519 2691 2695 2812 2952 2815 2867 2828 2826 2910 2845 2940 2941 3032 2932 2872 2841 2821 2913 2868 2835 2878 2894 2848 2797 2703 2630 2659 2504 2357 2128 1752 1606 1501 1279 998 738 550 454 389 283 214 246 208 227 216 226 271
0 0 0 0 0 0 0 0 0 0 0 0 0 0 0 0 0 0 0 0 0 0 0 12 54 7 3 6 0 94 27 360 288 273 206 657 1416 1842 2311 2440 2543 2479 2778 2690 2733 2854 3012 3110 3047 2958 3041 3026 3013 2937 2741 2790 2644 2709 2784 2761 2713 2662 2528 2465 2565 2537 2720 2410 2105 1685 1778 1481 1504 1170 856 606 454 291 180 74 97 127 82 195 106 126
0 0 0 0 0 0 0 0 0 0 0 0 0 0 0 0 0 0 0 0 0 0 3 9 90 44 2 14 28 128 67 155 308 388 352 430 240 286 1198 2110 2157 2196 2397 2464 2608 2675 2940 3055 2936 2942 2980 2602 2786 2704 2538 2333 2050 2229 2273 2456 2252 2182 2278 2208 2046 2561 2518 2284 2202 2105 1828 1488 1558 1414 994 659 427 240 121 67 79 26 20 29 22 99
0 0 0 0 0 0 0 0 0 0 0 0 0 0 0 0 0 0 0 0 0 0 47 51 0 9 0 394 106 193 426 467 757 742 837 757 584 668 293 652 1862 2175 2223 2438 2522 2550 2800 3010 2768 2792 2749 2441 2175 2048 1828 1602 1414 1010 1408 1455 1633 1681 2082 2251 2368 2450 2330 2215 2043 1970 1687 1611 1527 1296 980 704 380 225 96 28 5 2 1 0 0 47
0 0 0 0 0 0 0 0 0 0 0 0 0 0 0 0 0 0 0 0 0 52 1 3 180 5 18 155 345 470 562 506 800 930 958 782 896 898 596 209 1207 2006 2147 2248 2434 2390 2653 2756 2316 2368 2201 2063 1799 1474 1272 988 948 662 553 202 880 1154 1223 1725 2007 1944 1835 1763 1751 1721 1594 1587 1451 1381 1054 656 332 172 67 39 4 5 0 0 0 51
0 0 0 0 0 0 0 0 0 0 0 0 0 0 0 0 0 0 0 0 0 0 35 0 0 0 4 39 25 255 509 808 829 899 1074 1012 816 611 118 176 1232 1776 2061 2146 2197 2260 2327 2420 2291 2083 1916 1898 1713 1374 962 775 860 620 573 150 363 381 638 894 1236 1255 1179 1253 1543 1515 1462 1508 1306 1211 912 582 295 262 162 71 4 0 0 0 0 0
0 0 1 0 0 0 0 0 0 0 0 0 0 0 0 0 0 0 10 90 0 2 0 0 0 16 88 112 58 356 603 914 971 1043 1241 1190 1029 1109 1144 1320 1552 1749 1797 1786 1680 1865 2014 2181 1850 1739 2058 1905 1724 1560 1242 807 617 603 486 136 284 619 728 558 817 814 1232 1274 1428 1482 1684 1595 1335 902 701 461 170 164 142 78 28 0 0 0 0 0
0 0 0 0 0 0 0 0 0 0 23 5 0 0 0 1 0 0 0 146 0 0 0 0 0 0 0 17 74 487 529 837 1046 1092 1301 1429 1341 1378 1318 1274 1381 1542 1498 1519 1654 1636 1560 1557 1607 1730 1807 1671 1524 1402 1056 587 309 307 567 340 442 229 215 328 601 889 1220 1749 1643 1524 1468 1496 1424 1139 776 638 604 435 353 103 0 0 0 0 0 0
1 1 0 0 0 0 0 0 0 0 0 0 0 0 0 0 0 0 0 0 0 0 0 11 0 0 0 4 42 218 305 513 1023 1185 1377 1460 1427 1437 1456 1500 1433 1376 1312 1297 1399 1382 1418 1411 1328 1608 1638 1378 1284 1162 966 693 394 381 536 625 764 564 460 508 415 768 955 1183 1313 1382 1429 1505 1520 1134 947 951 874 556 380 153 0 0 0 0 0 0
0 1 0 0 0 0 0 0 0 0 0 0 0 0 0 0 0 0 0 0 0 0 0 0 0 2 1 129 30 144 252 302 962 1295 1363 1297 1305 1345 1319 1205 1196 1234 1232 1295 1237 962 1019 1059 1107 1178 1221 705 985 1300 1222 960 752 485 677 701 707 614 604 550 1064 1038 1073 1047 1442 1358 1495 1579 1224 1103 1150 1110 771 258 448 151 33 0 0 2 0 0
0 1 0 0 0 0 0 0 0 0 0 0 0 0 0 0 0 0 0 0 0 0 0 0 0 0 5 451 302 127 185 234 854 1224 1170 1155 1112 1199 1303 1196 1194 1135 1133 1097 1017 739 814 855 932 942 948 759 772 885 930 906 1002 699 708 797 576 694 1095 1307 1325 1386 1421 1343 1308 1162 1314 1171 888 1042 1170 1012 941 681 490 99 41 0 0 6 0 0
0 12 10 0 0 0 0 0 0 0 0 0 0 0 0 0 0 5 20 0 0 0 4 0 0 0 172 4 93 98 102 156 548 1036 1050 1030 1173 1083 980 963 969 991 952 889 752 833 897 916 920 1016 796 544 438 487 875 869 962 1022 876 801 674 1137 1227 1139 1200 1330 1373 1327 1292 1136 993 1098 1007 1226 1022 804 921 684 589 73 14 26 6 0 4 0
0 0 0 1 0 0 0 0 0 0 0 0 0 0 0 0 0 0 0 0 0 0 0 0 0 74 0 0 30 36 97 168 297 929 974 864 876 809 690 801 786 719 874 917 812 722 815 764 626 540 828 828 942 859 822 873 832 1031 1056 977 1122 1207 1279 1245 1242 1464 1419 1462 1270 1183 1074 1242 1098 1101 1056 1115 1030 1003 825 214 249 222 55 9 20 0
134 0 0 0 0 44 0 0 0 0 0 0 0 0 0 0 0 0 0 0 0 0 0 0 0 267 0 2 30 93 133 135 461 906 1025 876 875 768 677 575 537 653 738 796 711 720 703 758 772 634 738 841 783 664 718 1032 1074 1013 1144 1128 1259 1193 1247 1147 1173 1189 1221 1222 1160 1076 1208 1173 1080 1022 1289 1145 992 1079 701 362 365 351 134 79 101 33
812 0 0 1 0 1 0 0 0 0 0 0 0 0 0 11 0 1 0 4 0 0 0 0 2 102 0 0 46 125 302 446 622 887 1007 986 892 827 661 582 447 383 496 448 474 495 499 490 668 816 903 899 793 632 612 757 1090 1048 923 786 873 1177 1020 1038 1116 1129 1067 1060 1099 973 936 829 979 1076 1111 1134 1084 1141 815 412 64 281 271 202 104 4
0 0 95 16 8 1 0 0 0 0 0 0 1 1 0 0 0 131 8 30 0 1 0 0 19 298 30 35 73 174 248 297 574 914 940 856 783 541 343 422 400 616 608 570 553 468 376 350 305 489 594 638 696 732 790 701 665 683 771 1000 922 878 951 1028 1076 971 892 900 1054 1006 935 1007 1032 1049 1044 911 743 934 895 506 48 272 331 376 205 57
0 0 0 24 47 0 5 10 0 0 0 0 0 0 0 0 59 2 0 0 0 7 2 2 1 167 11 54 94 137 146 234 397 655 742 846 790 707 463 62 6 298 470 659 590 527 456 469 440 412 184 384 490 519 679 809 671 751 881 1013 1176 980 1201 1145 1122 1099 1115 1140 1164 1158 929 1015 1008 960 995 900 788 800 759 762 607 429 420 434 395 337
0 0 0 0 0 2 0 0 0 0 0 0 0 0 0 0 0 22 54 0 0 82 32 40 250 29 70 118 70 90 165 197 382 481 665 895 883 772 522 544 495 327 340 407 311 309 314 323 349 321 534 461 185 321 418 677 768 721 974 1013 981 923 1090 1209 1284 1198 1254 1341 1358 1355 1273 1141 1026 916 923 854 756 782 753 785 756 651 480 436 546 596
0 0 0 0 0 0 3 0 2 0 0 0 1 0 0 0 0 48 0 132 333 18 37 432 364 368 145 14 0 3 31 68 136 511 805 936 921 736 491 515 436 400 362 181 18 7 2 48 228 295 356 418 453 442 220 264 472 499 613 743 873 941 1028 953 1160 1170 1229 1091 1403 1352 1155 1116 1128 1006 957 864 797 826 813 836 782 663 579 497 612 643
4 0 0 0 0 0 0 0 0 0 0 0 0 0 0 0 32 154 0 2 278 86 6 347 427 186 31 0 1 0 4 12 175 515 742 816 790 613 448 217 389 398 215 44 39 18 7 1 0 0 0 149 251 271 319 190 144 290 314 327 556 760 788 922 1032 1086 1080 1168 1274 1266 1239 1182 1141 1022 1025 973 915 826 768 718 746 670 320 688 698 772
33 2 2 0 0 0 0 0 0 0 0 0 0 0 0 0 0 15 31 55 195 304 186 228 52 0 0 0 0 2 1 26 250 402 649 706 742 684 490 300 261 109 83 74 62 34 12 4 0 0 0 0 0 0 0 0 0 0 1 226 334 372 483 726 848 897 991 1024 1150 929 1141 1155 939 945 990 970 1067 859 733 671 741 834 857 927 865 972
484 10 1 4 0 0 0 0 0 0 0 0 0 0 0 0 0 0 7 24 104 80 6 0 0 0 0 2 0 0 28 175 272 363 504 593 667 580 444 320 245 181 135 102 71 49 20 0 0 0 0 0 0 0 0 0 0 0 0 0 0 1 113 520 613 778 793 848 888 804 811 899 815 761 874 922 777 707 702 728 846 984 1162 1073 977 1038
162 87 22 20 6 5 0 0 0 0 0 0 0 0 0 0 0 0 0 0 12 52 7 0 0 0 0 0 0 0 83 137 272 362 440 466 435 385 283 236 244 222 190 135 108 72 24 9 4 0 0 0 0 0 0 0 0 0 0 0 0 0 0 0 13 278 531 681 793 880 930 994 1058 1009 969 993 971 769 815 943 991 905 1014 1088 1078 1283
169 106 36 50 61 76 6 5 6 0 2 0 0 0 0 0 0 0 0 0 0 6 1 0 71 0 0 0 2 45 108 135 219 318 382 405 363 296 213 181 186 207 180 157 118 96 62 10 0 0 0 0 0 0 0 0 0 0 0 0 0 0 0 0 0 0 0 17 197 496 738 871 996 1111 1151 1157 1061 985 824 805 1013 1083 1060 1094 1137 1110
259 247 60 123 71 104 40 29 20 26 0 3 0 0 0 0 0 0 0 0 0 0 0 0 0 0 0 0 0 0 96 173 206 225 255 293 280 214 184 140 139 155 175 162 138 126 73 28 4 0 0 0 0 0 0 0 7 14 2 0 0 0 0 0 0 0 0 0 0 0 20 297 602 764 864 1024 1060 1090 956 878 827 1001 1009 944 941 890
92 52 80 108 83 48 22 30 34 5 11 0 0 0 0 0 0 0 0 1 2 2 1 0 0 2 0 0 0 0 19 116 162 253 255 237 208 194 134 75 85 99 108 121 124 59 73 51 14 16 1 0 0 1 13 29 0 0 0 0 0 0 0 0 0 0 0 0 0 0 0 0 0 129 400 681 696 919 1180 1192 1186 1056 1077 1053 1046 1041
10 31 32 14 40 23 28 31 7 21 0 0 0 0 0 0 0 0 0 0 0 0 0 0 0 0 0 0 0 0 0 12 46 124 213 248 225 150 98 5 0 63 69 54 6 3 13 0 0 0 0 6 21 18 1 0 5 0 0 0 0 0 0 0 0 0 0 0 0 0 0 0 0 0 51 294 535 712 940 1030 1028 1007 1124 1166 1208 1169
81 12 11 6 0 14 16 49 4 0 1 0 0 0 0 0 0 0 0 0 0 0 0 0 0 0 0 0 0 0 0 0 5 7 30 152 203 74 6 0 0 0 0 0 0 0 0 0 2 3 0 0 0 0 0 0 0 0 0 0 0 0 0 0 0 0 0 0 0 0 0 0 0 0 0 39 328 444 553 849 975 967 993 1041 1094 1110
3 0 5 2 0 2 40 132 0 0 10 1 0 0 0 0 0 0 0 0 0 0 0 0 0 0 0 0 0 0 0 0 0 0 0 2 13 6 4 1 0 0 0 0 0 0 0 0 0 0 0 0 0 0 0 0 0 0 0 0 0 0 0 0 0 0 0 0 0 0 0 0 0 0 0 11 20 191 577 622 570 650 728 718 791 956
0 0 0 0 0 0 0 8 1 10 0 0 0 0 0 0 0 0 0 0 0 0 0 0 0 0 0 0 0 0 0 0 0 0 0 0 0 0 0 0 0 0 0 0 0 0 0 0 0 0 0 0 0 0 0 0 0 0 0 0 0 0 0 0 0 0 0 0 0 0 0 0 0 0 0 0 2 116 280 473 462 379 487 608 694 1069
0 0 0 0 0 0 0 0 11 0 0 0 0 0 3 1 2 0 1 0 0 0 0 0 0 0 0 0 0 0 0 0 0 0 0 0 0 0 0 0 0 0 0 0 0 0 0 0 0 0 0 0 0 0 0 0 0 0 0 0 0 0 0 0 0 0 0 0 0 0 0 0 0 0 0 0 0 0 116 306 301 317 262 264 292 571
0 0 0 2 0 0 0 1 0 0 0 0 1 1 1 4 8 2 28 0 0 0 0 0 0 0 0 0 0 0 0 0 0 0 0 0 0 0 0 0 0 0 0 0 0 0 0 0 0 0 0 0 0 0 0 0 0 0 0 0 0 0 0 0 0 0 0 0 0 0 0 0 0 0 0 0 0 0 0 77 227 203 148 164 157 283
0 0 0 0 0 0 0 0 0 0 0 2 1 1 0 4 16 5 0 0 0 0 0 0 0 0 0 0 0 0 0 0 0 0 0 0 0 0 0 0 0 0 0 0 0 0 0 0 0 0 0 0 0 0 0 0 0 0 0 0 0 0 0 0 0 0 0 0 0 0 0 0 0 0 0 0 0 0 1 20 63 204 227 88 159 544
0 0 0 0 0 0 0 4 2 2 0 0 0 0 0 2 0 0 0 0 0 0 0 0 0 0 0 0 0 0 0 1 0 1 4 5 4 1 0 0 0 0 0 0 0 0 0 0 0 0 0 0 0 0 0 0 0 0 0 0 0 0 0 0 0 0 0 0 0 0 0 0 0 0 0 0 0 1 6 22 101 154 142 163 260 400
0 0 0 0 0 0 0 8 0 0 0 0 0 2 0 0 0 0 0 0 0 0 0 0 0 0 0 0 0 0 0 1 3 2 2 4 4 0 0 0 0 0 0 0 0 0 0 0 0 0 0 0 0 0 0 0 0 0 0 0 0 0 0 0 0 0 0 0 0 0 0 0 0 0 0 0 0 0 14 9 2 130 119 145 167 161
0 0 0 0 0 0 1 0 0 0 2 0 0 0 0 0 0 0 0 0 0 0 0 0 0 0 0 0 0 0 0 0 0 1 2 3 1 0 0 0 0 0 0 0 0 0 0 0 0 0 0 0 0 0 0 0 0 0 0 0 0 0 0 0 0 0 0 0 0 0 0 0 0 0 0 0 0 0 0 5 15 12 161 154 111 55
0 0 0 0 0 1 0 2 2 1 2 0 2 0 0 0 0 0 0 0 0 0 0 0 0 0 0 0 0 0 0 0 0 0 0 0 0 0 0 0 0 0 0 0 0 0 0 0 0 0 0 0 0 0 0 0 0 0 0 0 0 0 0 0 0 0 0 0 0 0 0 0 0 0 0 0 0 0 0 2 59 18 33 164 208 193
0 0 0 0 2 0 4 3 1 0 0 0 0 0 0 0 0 0 0 0 0 0 0 0 0 1 0 0 0 0 0 0 0 0 0 0 0 0 0 0 0 0 0 0 0 0 0 0 0 0 0 0 0 0 0 0 0 0 0 0 0 0 0 0 0 0 0 0 0 0 0 0 0 0 0 0 0 0 0 0 21 114 67 193 176 287
0 0 0 0 0 0 3 2 2 1 2 4 5 5 10 10 9 8 4 2 4 5 6 4 4 6 5 6 7 9 8 5 2 2 1 1 1 1 1 0 0 0 0 0 0 0 0 0 0 0 0 0 0 0 0 1 0 1 0 0 1 0 0 0 0 0 0 0 0 0 0 0 0 0 0 0 0 0 0 2 6 34 105 45 44 51
0 0 0 0 0 1 1 2 3 6 7 3 2 4 7 7 8 7 4 2 1 1 4 6 8 8 9 8 9 7 7 6 5 5 4 2 2 2 1 0 0 0 0 0 0 0 0 0 0 0 0 0 0 0 2 1 2 0 0 1 2 2 0 0 0 1 1 0 0 0 0 0 0 0 0 0 0 0 0 0 2 5 79 16 48 114
0 1 0 0 0 0 0 0 0 1 2 0 0 0 1 3 4 4 2 2 0 1 2 1 0 0 0 0 0 0 0 0 0 0 0 0 0 0 0 0 0 0 0 0 0 0 0 4 0 0 0 0 1 0 0 1 1 3 2 1 0 0 0 0 0 1 0 0 2 0 0 0 0 0 0 0 0 0 23 0 0 10 109 203 3 5
1 4 0 0 1 0 0 0 0 0 1 1 1 0 0 0 0 0 0 0 0 0 0 0 0 0 0 0 0 0 0 0 0 0 0 0 0 0 0 0 0 0 0 0 0 0 1 0 0 1 0 1 0 0 1 0 1 1 2 0 3 0 0 0 0 0 0 0 2 3 2 1 0 0 0 0 0 0 0 4 0 0 0 0 55 0
Wind_Speed
nan nan nan nan nan nan nan nan nan nan nan nan nan nan nan nan nan nan nan nan nan nan nan nan nan nan nan nan 21 23 25 22 22 20 19 21 22 22 21 20 22 22 23 25 23 23 24 25 23 21 21 20 17 16 16 18 17 16 10 11 12 12 12 11 11 11 11 11 11 11 12 14 14 14 15 15 15 16 18 16 17 17 18 17 16 15
nan nan nan nan nan nan nan nan nan nan nan nan nan nan nan nan nan nan nan nan nan nan nan nan nan nan nan nan 22 25 25 22 21 22 20 21 21 22 21 21 22 23 25 26 24 24 23 24 24 22 20 19 18 18 17 18 19 17 10 10 13 13 12 12 13 14 13 13 12 13 14 15 15 15 14 16 16 17 18 18 18 17 18 19 18 17
nan nan nan nan nan nan nan nan nan nan nan nan nan nan nan nan nan nan nan nan nan nan nan nan nan nan nan nan 22 22 23 24 22 22 22 20 20 20 20 20 21 23 24 25 23 22 23 23 24 21 19 18 17 19 17 17 15 16 11 8 11 14 12 14 16 16 16 16 16 14 17 16 17 17 16 17 18 18 19 18 18 19 18 18 18 18
nan nan nan nan nan nan nan nan nan nan nan nan nan nan nan nan nan nan nan nan nan nan nan nan nan nan nan 25 23 21 22 24 23 21 20 17 18 18 19 18 18 20 21 21 20 20 22 22 22 20 18 18 17 17 16 14 14 14 11 14 13 15 14 16 18 17 19 19 19 18 19 19 18 19 19 19 18 19 19 20 18 19 18 17 17 17
nan nan nan nan nan nan nan nan nan nan nan nan nan nan nan nan nan nan nan nan nan nan nan nan nan nan 22 nan 23 22 23 22 20 16 14 15 16 18 18 16 16 18 18 19 19 19 20 20 19 18 17 16 16 15 14 13 12 13 13 15 16 16 17 19 21 20 21 21 20 21 22 22 23 21 19 18 18 18 18 19 19 19 17 17 17 16
nan nan nan nan nan nan nan nan nan nan nan nan nan nan nan nan nan nan nan nan nan nan nan nan nan nan nan nan 19 22 19 15 13 10 9 11 13 15 14 14 16 15 16 16 16 17 18 17 16 14 14 13 13 12 11 12 11 12 14 15 17 17 19 21 22 21 21 19 21 21 21 21 20 20 18 18 18 16 16 nan nan nan 17 17 17 16
nan nan nan nan nan nan nan nan nan nan nan nan nan nan nan nan nan nan nan nan nan nan nan nan nan nan nan nan 18 18 13 10 11 7 7 8 10 10 12 13 13 12 13 13 14 17 15 13 13 11 10 10 10 9 9 10 10 12 14 15 16 17 20 21 21 21 19 21 21 20 20 21 20 20 19 18 18 16 16 nan 16 18 17 17 18 18
nan nan nan nan nan nan nan nan nan nan nan nan nan nan nan nan nan nan nan nan nan nan nan nan nan nan nan nan 18 15 11 9 8 6 6 8 8 8 10 11 11 11 12 14 14 15 13 10 10 10 9 8 8 9 9 9 10 12 14 14 15 17 19 20 21 21 19 21 20 20 20 21 21 20 20 19 18 18 17 nan nan 16 17 17 19 19
nan nan nan nan nan nan nan nan nan nan nan nan nan nan nan nan nan nan nan nan nan nan nan nan nan nan nan nan nan 13 11 7 8 8 7 8 9 9 9 10 11 12 13 13 13 12 11 9 9 11 9 8 8 9 9 10 12 13 14 14 16 18 20 19 20 20 20 20 19 19 20 21 21 21 20 19 20 20 20 20 18 17 18 19 19 19
nan nan nan nan nan nan nan nan nan nan nan nan nan nan nan nan nan nan nan nan nan nan nan nan nan nan nan nan nan nan 11 14 13 12 14 12 12 12 12 12 13 14 13 12 12 12 11 10 10 12 11 10 10 12 13 14 15 15 15 17 19 21 22 21 21 20 20 20 18 17 19 21 22 21 21 21 22 23 23 24 23 22 21 22 21 21
nan nan nan nan nan nan nan nan nan nan nan nan nan nan nan nan nan nan nan nan nan nan nan nan nan nan nan nan nan nan nan 23 20 21 20 20 18 15 14 13 14 14 13 12 12 13 13 13 12 14 15 15 15 17 18 18 17 17 18 21 22 24 24 23 21 19 20 20 18 18 20 21 24 25 25 26 26 26 26 nan nan 26 nan 26 26 24
nan nan nan nan nan nan nan nan nan nan nan nan nan nan nan nan nan nan nan nan nan nan nan nan nan nan nan nan nan 27 nan 24 22 24 25 24 23 22 18 14 13 13 12 12 13 15 17 17 15 17 18 20 22 23 22 21 20 20 21 24 27 28 27 23 21 20 21 21 21 22 22 23 26 28 26 28 28 28 29 nan nan nan nan nan nan nan
nan nan nan nan nan nan nan nan nan nan nan nan nan nan nan nan nan nan nan nan nan nan nan nan nan nan nan 27 28 26 28 27 26 26 28 26 25 24 20 17 14 12 13 13 14 16 18 19 19 20 23 30 33 33 35 35 34 33 33 31 31 29 26 24 22 22 24 25 25 25 24 25 27 28 28 29 29 28 nan nan nan nan nan nan nan nan
nan nan nan nan nan nan nan nan nan nan nan nan nan nan nan nan nan nan nan nan nan nan nan nan 20 nan nan 29 30 29 31 31 30 30 30 29 27 25 24 20 17 14 14 16 17 18 19 22 22 24 27 31 31 33 37 38 35 36 40 43 40 35 29 25 26 28 29 29 27 26 25 26 28 28 27 28 28 27 nan nan nan nan nan nan nan nan
nan nan nan nan nan nan nan nan nan nan nan nan nan nan nan nan nan nan nan nan nan nan nan nan nan nan nan nan nan 32 31 32 33 34 33 32 30 28 25 23 22 20 19 20 20 21 23 24 28 31 30 30 30 29 31 35 37 38 37 35 33 30 31 29 28 29 29 28 26 25 26 27 27 26 25 24 25 26 28 nan nan nan nan nan nan nan
nan nan nan nan nan nan nan nan nan nan nan nan nan nan nan nan nan nan nan nan nan nan nan nan nan nan nan 30 nan 29 30 34 36 38 37 38 36 34 32 30 28 27 27 27 26 25 28 31 32 30 31 33 31 31 34 38 38 38 34 31 27 18 13 11 16 24 25 25 25 27 28 25 24 24 23 23 24 27 30 nan nan nan nan nan nan nan
nan nan nan nan nan nan nan nan nan nan nan nan nan nan nan nan nan nan nan 23 nan nan nan nan nan nan nan nan nan 28 31 36 38 40 41 40 39 38 36 34 32 31 30 30 29 29 31 33 34 35 38 37 35 34 38 39 37 38 34 33 26 17 18 13 12 18 20 23 26 26 25 24 23 25 24 25 26 27 28 27 nan nan nan nan nan nan
nan nan nan nan nan nan nan nan nan nan nan nan nan nan nan nan nan nan nan nan nan nan nan nan nan nan nan nan nan 32 34 38 40 41 42 41 40 40 39 37 36 35 34 34 35 37 39 40 41 42 43 42 38 36 38 38 34 34 35 32 27 19 15 12 12 16 18 19 21 23 23 23 22 22 24 24 26 25 22 23 nan nan nan nan nan nan
nan nan nan nan nan nan nan nan nan nan nan nan nan nan nan nan nan nan nan nan nan nan nan nan nan nan nan 24 nan 33 37 39 40 41 42 42 42 42 42 43 42 41 41 41 41 41 42 41 41 41 43 45 42 41 38 35 31 34 38 34 23 12 7 8 16 19 21 21 22 21 20 20 19 19 20 20 22 21 21 22 nan nan nan nan nan nan
nan nan nan nan nan nan nan nan nan nan nan nan nan nan nan nan nan nan nan nan nan nan nan nan nan nan nan 30 30 32 35 37 38 40 42 43 43 44 44 42 41 41 41 41 41 42 43 43 42 43 42 42 42 43 42 37 33 36 40 36 24 14 13 12 17 20 20 21 21 20 19 18 17 17 17 18 17 17 19 nan nan nan nan nan nan nan
nan nan nan nan nan nan nan nan nan nan nan nan nan nan nan nan nan nan nan nan nan nan nan nan nan nan 28 nan nan nan 30 31 32 37 39 41 44 44 42 42 41 41 40 39 39 41 43 43 42 44 46 42 37 36 38 39 39 38 40 39 31 22 21 21 20 19 19 20 19 20 18 17 15 16 16 16 15 16 17 nan nan nan nan nan nan nan
nan nan nan nan nan nan nan nan nan nan nan nan nan nan nan nan nan nan nan nan nan nan nan nan nan nan nan nan nan nan nan 26 25 31 34 37 39 39 38 39 39 38 39 39 39 40 40 40 40 40 42 42 40 38 39 40 40 39 37 39 32 26 23 25 24 21 20 21 20 20 19 17 15 15 15 16 15 16 17 18 17 18 nan nan nan nan
29 nan nan nan nan nan nan nan nan nan nan nan nan nan nan nan nan nan nan nan nan nan nan nan nan 21 nan nan nan nan 24 24 22 27 30 32 34 35 36 38 37 37 37 37 38 38 38 37 38 39 40 43 41 40 42 41 40 40 39 38 36 32 28 27 27 25 22 22 22 22 20 18 16 14 15 16 16 16 17 17 17 17 19 nan 17 nan
32 nan nan nan nan nan nan nan nan nan nan nan nan nan nan nan nan nan nan nan nan nan nan nan nan 25 nan nan nan 24 25 24 22 26 28 29 32 33 34 35 35 35 34 33 33 34 34 35 36 36 37 39 39 40 40 38 38 38 35 33 35 33 30 28 27 25 22 22 22 21 19 18 18 17 16 15 15 17 17 17 nan 17 18 19 17 nan
nan nan nan nan nan nan nan nan nan nan nan nan nan nan nan nan nan 31 nan nan nan nan nan nan nan 25 nan nan nan 25 25 25 24 25 26 28 30 30 30 31 31 30 29 29 31 33 37 39 38 37 36 36 37 36 36 35 35 33 29 25 28 30 28 29 28 25 23 22 21 19 18 20 20 19 17 15 15 16 16 17 nan 17 17 18 19 nan
nan nan nan nan nan nan nan nan nan nan nan nan nan nan nan nan nan nan nan nan nan nan nan nan nan 28 nan nan nan 26 26 25 24 27 29 29 30 30 30 nan nan 27 26 27 31 34 37 37 36 35 34 32 31 30 30 29 29 28 27 27 27 28 28 29 29 27 25 23 20 19 18 19 19 19 17 15 14 15 16 17 17 18 17 18 19 19
nan nan nan nan nan nan nan nan nan nan nan nan nan nan nan nan nan nan nan nan nan nan nan nan 25 nan nan 25 nan nan 24 25 25 28 28 29 30 31 32 29 27 27 27 29 31 33 35 37 36 35 34 32 29 27 26 27 27 27 26 27 29 30 32 31 30 29 27 25 23 20 18 17 16 17 16 15 16 17 18 18 18 18 18 18 19 20
nan nan nan nan nan nan nan nan nan nan nan nan nan nan nan nan nan nan nan 23 30 nan nan 29 31 30 29 nan nan nan nan nan 26 26 27 28 28 31 33 32 32 31 30 31 nan nan nan nan 36 35 34 32 30 29 28 28 29 29 28 28 29 31 32 31 31 31 30 28 25 22 20 19 18 16 15 16 17 18 19 20 20 18 19 19 20 20
nan nan nan nan nan nan nan nan nan nan nan nan nan nan nan nan nan 34 nan nan 32 nan nan 31 32 34 nan nan nan nan nan nan 29 29 29 29 29 31 33 34 34 34 34 nan nan nan nan nan nan nan nan 33 33 33 33 32 32 32 31 31 31 31 32 32 32 32 31 30 27 27 25 23 22 19 17 18 18 19 20 21 21 20 21 23 24 25
nan nan nan nan nan nan nan nan nan nan nan nan nan nan nan nan nan nan nan nan 40 39 38 38 nan nan nan nan nan nan nan nan 32 31 31 31 31 32 35 36 37 37 nan nan nan nan nan nan nan nan nan nan nan nan nan nan nan nan nan 34 33 33 33 32 33 33 32 32 32 30 29 27 26 23 21 21 21 22 22 23 24 25 26 27 29 30
20 nan nan nan nan nan nan nan nan nan nan nan nan nan nan nan nan nan nan nan 41 nan nan nan nan nan nan nan nan nan nan 34 35 36 36 35 35 36 38 39 40 40 41 41 nan nan nan nan nan nan nan nan nan nan nan nan nan nan nan nan nan nan 35 34 34 34 34 34 34 33 32 31 30 29 27 27 26 27 27 27 28 29 29 30 31 33
22 nan nan nan nan nan nan nan nan nan nan nan nan nan nan nan nan nan nan nan nan nan nan nan nan nan nan nan nan nan nan 40 40 40 39 39 40 41 43 44 44 44 44 44 44 nan nan nan nan nan nan nan nan nan nan nan nan nan nan nan nan nan nan nan nan 37 36 36 35 36 35 35 34 32 32 32 31 31 30 31 31 31 32 33 33 36
26 29 nan nan nan nan nan nan nan nan nan nan nan nan nan nan nan nan nan nan nan nan nan nan nan nan nan nan nan nan 43 44 44 43 43 45 45 46 47 47 47 47 48 48 49 nan nan nan nan nan nan nan nan nan nan nan nan nan nan nan nan nan nan nan nan nan nan nan 40 40 38 37 36 36 35 35 34 34 34 33 34 34 34 34 35 36
28 27 nan 25 nan 27 nan nan nan nan nan nan nan nan nan nan nan nan nan nan nan nan nan nan nan nan nan nan nan nan nan 46 46 46 46 45 46 49 50 51 51 51 50 50 50 49 nan nan nan nan nan nan nan nan nan nan nan nan nan nan nan nan nan nan nan nan nan nan nan nan nan 41 40 38 38 37 36 36 37 35 36 37 36 37 37 37
nan nan nan 26 nan nan nan nan nan nan nan nan nan nan nan nan nan nan nan nan nan nan nan nan nan nan nan nan nan nan nan 51 51 52 52 51 51 52 52 nan nan nan 48 50 52 nan nan nan nan nan nan nan nan nan nan nan nan nan nan nan nan nan nan nan nan nan nan nan nan nan nan nan nan 41 41 39 38 37 36 36 37 37 37 38 38 39
nan nan nan nan nan nan nan nan nan nan nan nan nan nan nan nan nan nan nan nan nan nan nan nan nan nan nan nan nan nan nan nan nan 56 55 55 55 52 nan nan nan nan nan nan nan nan nan nan nan nan nan nan nan nan nan nan nan nan nan nan nan nan nan nan nan nan nan nan nan nan nan nan nan nan nan 41 40 38 37 37 37 37 39 38 39 40
nan nan nan nan nan nan nan nan nan nan nan nan nan nan nan nan nan nan nan nan nan nan nan nan nan nan nan nan nan nan nan nan nan nan nan 54 55 nan nan nan nan nan nan nan nan nan nan nan nan nan nan nan nan nan nan nan nan nan nan nan nan nan nan nan nan nan nan nan nan nan nan nan nan nan nan nan 41 40 41 41 41 41 42 42 42 42
nan nan nan nan nan nan nan 26 nan nan nan nan nan nan nan nan nan nan nan nan nan nan nan nan nan nan nan nan nan nan nan nan nan nan nan nan nan nan nan nan nan nan nan nan nan nan nan nan nan nan nan nan nan nan nan nan nan nan nan nan nan nan nan nan nan nan nan nan nan nan nan nan nan nan nan nan nan 43 44 44 45 45 46 45 45 46
nan nan nan nan nan nan nan nan nan nan nan nan nan nan nan nan nan nan nan nan nan nan nan nan nan nan nan nan nan nan nan nan nan nan nan nan nan nan nan nan nan nan nan nan nan nan nan nan nan nan nan nan nan nan nan nan nan nan nan nan nan nan nan nan nan nan nan nan nan nan nan nan nan nan nan nan nan 48 46 46 47 47 47 46 46 47
nan nan nan nan nan nan nan nan nan nan nan nan nan nan nan nan nan nan nan nan nan nan nan nan nan nan nan nan nan nan nan nan nan nan nan nan nan nan nan nan nan nan nan nan nan nan nan nan nan nan nan nan nan nan nan nan nan nan nan nan nan nan nan nan nan nan nan nan nan nan nan nan nan nan nan nan nan nan 50 49 48 49 47 47 46 48
nan nan nan nan nan nan nan nan nan nan nan nan nan nan nan nan nan nan nan nan nan nan nan nan nan nan nan nan nan nan nan nan nan nan nan nan nan nan nan nan nan nan nan nan nan nan nan nan nan nan nan nan nan nan nan nan nan nan nan nan nan nan nan nan nan nan nan nan nan nan nan nan nan nan nan nan nan nan nan nan 49 49 49 48 48 48
nan nan nan nan nan nan nan nan nan nan nan nan nan nan nan nan nan nan nan nan nan nan nan nan nan nan nan nan nan nan nan nan nan nan nan nan nan nan nan nan nan nan nan nan nan nan nan nan nan nan nan nan nan nan nan nan nan nan nan nan nan nan nan nan nan nan nan nan nan nan nan nan nan nan nan nan nan nan nan nan nan 49 49 nan 49 50
nan nan nan nan nan nan nan nan nan nan nan nan nan nan nan nan nan nan nan nan nan nan nan nan nan nan nan nan nan nan nan nan nan nan nan nan nan nan nan nan nan nan nan nan nan nan nan nan nan nan nan nan nan nan nan nan nan nan nan nan nan nan nan nan nan nan nan nan nan nan nan nan nan nan nan nan nan nan nan nan 52 51 49 47 47 48
nan nan nan nan nan nan nan nan nan nan nan nan nan nan nan nan nan nan nan nan nan nan nan nan nan nan nan nan nan nan nan nan nan nan nan nan nan nan nan nan nan nan nan nan nan nan nan nan nan nan nan nan nan nan nan nan nan nan nan nan nan nan nan nan nan nan nan nan nan nan nan nan nan nan nan nan nan nan nan nan nan 53 51 49 47 47
nan nan nan nan nan nan nan nan nan nan nan nan nan nan nan nan nan nan nan nan nan nan nan nan nan nan nan nan nan nan nan nan nan nan nan nan nan nan nan nan nan nan nan nan nan nan nan nan nan nan nan nan nan nan nan nan nan nan nan nan nan nan nan nan nan nan nan nan nan nan nan nan nan nan nan nan nan nan nan nan nan nan 53 51 48 nan
nan nan nan nan nan nan nan nan nan nan nan nan nan nan nan nan nan nan nan nan nan nan nan nan nan nan nan nan nan nan nan nan nan nan nan nan nan nan nan nan nan nan nan nan nan nan nan nan nan nan nan nan nan nan nan nan nan nan nan nan nan nan nan nan nan nan nan nan nan nan nan nan nan nan nan nan nan nan nan nan nan nan nan 52 50 49
nan nan nan nan nan nan nan nan nan nan nan nan nan nan nan nan nan nan nan nan nan nan nan nan nan nan nan nan nan nan nan nan nan nan nan nan nan nan nan nan nan nan nan nan nan nan nan nan nan nan nan nan nan nan nan nan nan nan nan nan nan nan nan nan nan nan nan nan nan nan nan nan nan nan nan nan nan nan nan nan nan 52 nan 52 51 52
nan nan nan nan nan nan nan nan nan nan nan nan nan nan nan nan nan nan nan nan nan nan nan nan nan nan nan nan nan nan nan nan nan nan nan nan nan nan nan nan nan nan nan nan nan nan nan nan nan nan nan nan nan nan nan nan nan nan nan nan nan nan nan nan nan nan nan nan nan nan nan nan nan nan nan nan nan nan nan nan nan nan 52 nan nan nan
nan nan nan nan nan nan nan nan nan nan nan nan nan nan nan nan nan nan nan nan nan nan nan nan nan nan nan nan nan nan nan nan nan nan nan nan nan nan nan nan nan nan nan nan nan nan nan nan nan nan nan nan nan nan nan nan nan nan nan nan nan nan nan nan nan nan nan nan nan nan nan nan nan nan nan nan nan nan nan nan nan nan nan nan nan 51
nan nan nan nan nan nan nan nan nan nan nan nan nan nan nan nan nan nan nan nan nan nan nan nan nan nan nan nan nan nan nan nan nan nan nan nan nan nan nan nan nan nan nan nan nan nan nan nan nan nan nan nan nan nan nan nan nan nan nan nan nan nan nan nan nan nan nan nan nan nan nan nan nan nan nan nan nan nan nan nan nan nan 58 56 nan nan
nan nan nan nan nan nan nan nan nan nan nan nan nan nan nan nan nan nan nan nan nan nan nan nan nan nan nan nan nan nan nan nan nan nan nan nan nan nan nan nan nan nan nan nan nan nan nan nan nan nan nan nan nan nan nan nan nan nan nan nan nan nan nan nan nan nan nan nan nan nan nan nan nan nan nan nan nan nan nan nan nan nan nan nan nan nan
Wind_Direction
nan nan nan nan nan nan nan nan nan nan nan nan nan nan nan nan nan nan nan nan nan nan nan nan nan nan nan nan 256 261 264 262 262 263 257 258 259 261 263 267 270 274 272 271 274 276 282 286 289 291 292 295 298 291 290 289 287 277 275 271 269 277 275 279 287 287 285 289 284 287 291 281 279 274 273 272 272 274 272 274 281 285 287 284 278 275
nan nan nan nan nan nan nan nan nan nan nan nan nan nan nan nan nan nan nan nan nan nan nan nan nan nan nan nan 259 259 262 264 263 263 259 259 260 261 265 266 268 268 264 272 273 276 282 286 290 293 293 296 299 292 287 288 293 283 271 258 271 268 276 281 288 284 287 284 282 288 284 278 277 276 276 273 274 273 276 279 278 281 284 283 280 278
nan nan nan nan nan nan nan nan nan nan nan nan nan nan nan nan nan nan nan nan nan nan nan nan nan nan nan nan 256 262 261 256 257 259 261 262 262 257 259 263 265 267 266 267 272 278 283 290 292 293 292 293 294 291 289 289 286 279 269 262 270 275 283 285 286 284 284 280 276 275 274 277 273 264 262 266 266 271 273 273 275 276 278 281 280 279
nan nan nan nan nan nan nan nan nan nan nan nan nan nan nan nan nan nan nan nan nan nan nan nan nan nan nan 251 255 257 260 257 258 259 261 258 254 248 249 254 261 264 267 272 277 282 284 288 290 291 291 289 290 288 289 291 289 275 271 274 277 278 285 282 284 282 278 274 271 268 271 267 268 270 268 268 270 268 271 273 272 272 275 274 275 274
nan nan nan nan nan nan nan nan nan nan nan nan nan nan nan nan nan nan nan nan nan nan nan nan nan nan 260 nan 261 261 257 259 261 260 256 248 239 240 240 248 253 264 269 276 281 283 282 284 289 293 292 289 286 285 289 287 283 266 273 273 276 278 280 278 279 278 274 275 276 270 270 268 267 272 275 277 276 275 274 274 273 271 271 274 273 272
nan nan nan nan nan nan nan nan nan nan nan nan nan nan nan nan nan nan nan nan nan nan nan nan nan nan nan nan 272 265 259 262 261 255 254 248 248 247 246 251 256 264 275 282 284 281 277 277 280 288 295 298 293 285 281 281 282 270 270 275 278 274 276 276 281 279 276 276 275 276 278 278 277 278 282 284 285 288 290 nan nan nan 266 267 267 267
nan nan nan nan nan nan nan nan nan nan nan nan nan nan nan nan nan nan nan nan nan nan nan nan nan nan nan nan 267 266 267 265 252 231 237 253 253 250 242 253 267 280 281 278 277 273 270 273 281 291 302 308 308 300 278 275 282 279 271 274 280 278 275 275 278 279 274 273 274 279 280 279 280 282 282 280 282 283 285 nan 282 269 264 265 268 263
nan nan nan nan nan nan nan nan nan nan nan nan nan nan nan nan nan nan nan nan nan nan nan nan nan nan nan nan 262 265 265 261 251 235 220 244 253 248 237 241 258 270 271 269 271 267 263 266 277 289 301 311 318 302 286 276 271 277 278 279 280 274 273 274 274 277 274 273 276 281 280 281 284 287 286 287 282 279 281 nan nan 276 269 268 268 268
nan nan nan nan nan nan nan nan nan nan nan nan nan nan nan nan nan nan nan nan nan nan nan nan nan nan nan nan nan 257 262 266 259 239 243 230 235 232 225 228 247 257 262 261 263 265 266 274 287 289 302 317 312 290 282 273 265 268 268 268 267 268 270 273 277 276 275 273 279 281 279 284 283 286 287 285 284 283 281 283 281 274 270 269 266 268
nan nan nan nan nan nan nan nan nan nan nan nan nan nan nan nan nan nan nan nan nan nan nan nan nan nan nan nan nan nan 243 245 232 251 230 218 225 216 215 226 239 249 254 254 257 267 270 273 286 295 297 304 293 277 265 257 258 263 264 265 266 264 262 268 274 274 275 277 279 278 280 282 282 283 284 286 286 287 289 288 288 285 281 277 276 276
nan nan nan nan nan nan nan nan nan nan nan nan nan nan nan nan nan nan nan nan nan nan nan nan nan nan nan nan nan nan nan 227 232 242 240 229 221 216 221 228 240 246 249 251 262 273 280 279 286 294 296 289 275 263 260 256 256 258 259 261 264 261 259 268 273 275 274 275 275 273 278 282 283 286 286 288 290 290 292 nan nan 290 nan 283 280 281
nan nan nan nan nan nan nan nan nan nan nan nan nan nan nan nan nan nan nan nan nan nan nan nan nan nan nan nan nan 236 nan 233 220 231 233 229 223 217 219 225 235 245 252 262 275 283 285 282 288 288 284 276 263 256 252 247 245 244 247 251 256 256 260 267 273 272 269 268 269 268 275 278 280 285 285 289 291 294 295 nan nan nan nan nan nan nan
nan nan nan nan nan nan nan nan nan nan nan nan nan nan nan nan nan nan nan nan nan nan nan nan nan nan nan 226 243 238 229 228 223 218 219 215 211 217 224 224 228 248 264 273 280 282 282 279 284 279 272 265 258 255 247 234 229 226 223 228 234 243 252 259 263 264 262 261 262 264 269 274 277 282 286 288 291 294 nan nan nan nan nan nan nan nan
nan nan nan nan nan nan nan nan nan nan nan nan nan nan nan nan nan nan nan nan nan nan nan nan 229 nan nan 241 231 231 223 220 222 224 222 219 215 218 223 229 239 247 261 270 276 279 282 283 286 282 284 284 284 285 281 265 247 236 226 216 212 209 211 233 243 248 251 252 258 266 271 276 278 281 287 290 293 296 nan nan nan nan nan nan nan nan
nan nan nan nan nan nan nan nan nan nan nan nan nan nan nan nan nan nan nan nan nan nan nan nan nan nan nan nan nan 229 226 223 225 226 229 228 229 231 233 235 245 251 255 261 266 270 278 285 280 279 284 285 284 284 278 265 257 254 244 234 224 212 196 207 238 249 259 263 269 278 281 283 282 284 287 288 290 293 294 nan nan nan nan nan nan nan
nan nan nan nan nan nan nan nan nan nan nan nan nan nan nan nan nan nan nan nan nan nan nan nan nan nan nan 240 nan 233 231 229 229 231 232 235 236 238 241 242 244 247 251 255 261 266 272 278 281 288 289 287 285 275 269 265 261 256 252 251 247 234 234 238 250 261 272 282 280 280 279 282 285 285 286 286 287 290 293 nan nan nan nan nan nan nan
nan nan nan nan nan nan nan nan nan nan nan nan nan nan nan nan nan nan nan 246 nan nan nan nan nan nan nan nan nan 239 235 232 232 233 234 236 239 242 244 246 248 250 253 255 260 264 271 275 275 274 273 273 275 272 269 273 269 260 252 251 249 235 238 255 280 279 269 260 266 276 285 287 285 287 288 286 290 294 299 300 nan nan nan nan nan nan
nan nan nan nan nan nan nan nan nan nan nan nan nan nan nan nan nan nan nan nan nan nan nan nan nan nan nan nan nan 243 238 233 233 234 237 239 243 245 246 248 249 252 255 259 263 264 266 268 268 268 265 263 264 262 268 276 274 262 255 254 254 233 214 245 264 269 272 274 267 270 280 287 287 285 285 287 290 291 299 303 nan nan nan nan nan nan
nan nan nan nan nan nan nan nan nan nan nan nan nan nan nan nan nan nan nan nan nan nan nan nan nan nan nan 252 nan 244 235 233 235 238 242 244 246 249 251 252 252 251 253 256 259 262 262 260 259 262 266 266 257 255 262 274 273 259 250 247 257 269 199 224 260 269 274 276 271 269 272 280 287 285 286 288 292 299 301 302 nan nan nan nan nan nan
nan nan nan nan nan nan nan nan nan nan nan nan nan nan nan nan nan nan nan nan nan nan nan nan nan nan nan 245 247 243 236 234 237 243 243 246 251 251 251 254 255 257 259 260 261 260 258 257 258 259 259 262 260 255 263 267 263 261 249 247 266 296 302 287 273 272 281 279 270 265 265 276 287 287 291 292 296 296 297 nan nan nan nan nan nan nan
nan nan nan nan nan nan nan nan nan nan nan nan nan nan nan nan nan nan nan nan nan nan nan nan nan nan 243 nan nan nan 234 235 235 245 248 251 253 254 257 258 259 260 259 259 259 257 255 254 254 252 249 253 259 262 266 265 260 263 255 251 267 280 278 279 273 272 275 272 266 269 272 279 281 280 283 287 293 295 296 nan nan nan nan nan nan nan
nan nan nan nan nan nan nan nan nan nan nan nan nan nan nan nan nan nan nan nan nan nan nan nan nan nan nan nan nan nan nan 238 242 251 253 256 255 255 255 254 255 258 257 258 257 256 255 254 255 256 255 253 254 258 264 265 264 267 264 258 260 267 267 268 266 264 262 257 257 264 270 276 272 275 278 282 287 291 294 296 297 295 nan nan nan nan
227 nan nan nan nan nan nan nan nan nan nan nan nan nan nan nan nan nan nan nan nan nan nan nan nan 249 nan nan nan nan 235 244 250 254 257 258 258 258 256 255 255 254 255 255 255 255 254 254 256 257 258 256 254 254 259 261 261 265 268 264 261 261 259 257 254 254 251 249 253 259 266 274 275 278 276 279 281 284 288 292 293 295 297 nan 296 nan
230 nan nan nan nan nan nan nan nan nan nan nan nan nan nan nan nan nan nan nan nan nan nan nan nan 249 nan nan nan 239 242 248 251 255 259 258 258 255 256 257 257 257 256 254 254 254 255 255 256 257 256 257 257 257 259 259 259 261 262 260 257 253 249 248 248 250 249 250 253 259 267 275 273 275 275 277 278 281 285 289 nan 295 297 298 298 nan
nan nan nan nan nan nan nan nan nan nan nan nan nan nan nan nan nan 237 nan nan nan nan nan nan nan 249 nan nan nan 246 248 248 247 246 252 256 257 256 256 256 255 257 258 255 254 253 252 253 253 252 255 254 255 259 259 257 254 253 253 250 248 245 243 243 245 247 250 253 256 261 268 273 274 275 274 271 269 278 282 286 nan 290 294 293 297 nan
nan nan nan nan nan nan nan nan nan nan nan nan nan nan nan nan nan nan nan nan nan nan nan nan nan 246 nan nan nan 247 249 248 245 242 244 249 255 258 256 nan nan 260 259 253 249 249 249 252 257 255 255 258 259 258 257 254 252 252 250 245 242 245 246 246 245 246 248 254 261 264 267 270 272 274 273 268 263 268 274 278 282 285 285 289 293 295
nan nan nan nan nan nan nan nan nan nan nan nan nan nan nan nan nan nan nan nan nan nan nan nan 244 nan nan 252 nan nan 249 252 249 250 251 253 257 258 254 254 255 255 254 250 247 248 250 252 254 257 256 256 258 259 253 248 249 248 247 248 247 244 243 243 246 250 250 251 254 257 260 263 268 268 265 263 258 259 264 269 273 280 285 288 290 291
nan nan nan nan nan nan nan nan nan nan nan nan nan nan nan nan nan nan nan 233 219 nan nan 246 259 259 257 nan nan nan nan nan 250 251 256 259 257 255 254 253 253 252 250 250 nan nan nan nan 251 252 251 251 251 251 251 248 245 246 245 245 243 243 243 243 244 248 251 254 254 253 253 254 256 259 262 258 259 260 261 264 269 275 281 286 291 293
nan nan nan nan nan nan nan nan nan nan nan nan nan nan nan nan nan 240 nan nan 223 nan nan 251 254 253 nan nan nan nan nan nan 250 253 257 261 258 257 257 255 254 252 252 nan nan nan nan nan nan nan nan 249 249 247 246 247 247 245 246 245 244 244 243 243 244 247 250 253 253 253 253 258 259 259 262 263 263 267 269 269 270 273 279 286 288 288
nan nan nan nan nan nan nan nan nan nan nan nan nan nan nan nan nan nan nan nan 239 241 244 250 nan nan nan nan nan nan nan nan 252 255 257 259 257 254 253 252 252 251 nan nan nan nan nan nan nan nan nan nan nan nan nan nan nan nan nan 242 243 244 244 246 246 247 248 251 253 255 258 261 267 268 268 268 270 271 271 272 273 275 279 283 284 285
252 nan nan nan nan nan nan nan nan nan nan nan nan nan nan nan nan nan nan nan 246 nan nan nan nan nan nan nan nan nan nan 254 254 253 251 251 252 252 250 249 248 248 249 249 nan nan nan nan nan nan nan nan nan nan nan nan nan nan nan nan nan nan 246 248 249 251 251 253 254 255 258 262 264 268 271 272 273 274 274 275 275 276 278 279 280 280
258 nan nan nan nan nan nan nan nan nan nan nan nan nan nan nan nan nan nan nan nan nan nan nan nan nan nan nan nan nan nan 255 254 252 250 249 249 250 249 248 246 245 245 245 246 nan nan nan nan nan nan nan nan nan nan nan nan nan nan nan nan nan nan nan nan 255 255 255 256 256 256 258 261 264 266 269 271 272 273 273 274 275 275 276 277 277
269 271 nan nan nan nan nan nan nan nan nan nan nan nan nan nan nan nan nan nan nan nan nan nan nan nan nan nan nan nan 253 252 251 251 251 248 246 248 249 250 250 248 246 244 243 nan nan nan nan nan nan nan nan nan nan nan nan nan nan nan nan nan nan nan nan nan nan nan 259 259 259 260 261 262 265 268 269 270 270 272 273 273 274 275 275 275
268 276 nan 277 nan 264 nan nan nan nan nan nan nan nan nan nan nan nan nan nan nan nan nan nan nan nan nan nan nan nan nan 249 249 248 248 250 250 247 247 248 248 248 248 247 246 243 nan nan nan nan nan nan nan nan nan nan nan nan nan nan nan nan nan nan nan nan nan nan nan nan nan 263 263 264 266 267 268 270 271 271 272 272 272 272 273 274
nan nan nan 271 nan nan nan nan nan nan nan nan nan nan nan nan nan nan nan nan nan nan nan nan nan nan nan nan nan nan nan 251 248 248 246 245 247 249 248 nan nan nan 251 251 249 nan nan nan nan nan nan nan nan nan nan nan nan nan nan nan nan nan nan nan nan nan nan nan nan nan nan nan nan 268 268 268 269 270 271 272 273 275 275 275 275 273
nan nan nan nan nan nan nan nan nan nan nan nan nan nan nan nan nan nan nan nan nan nan nan nan nan nan nan nan nan nan nan nan nan 245 244 244 246 248 nan nan nan nan nan nan nan nan nan nan nan nan nan nan nan nan nan nan nan nan nan nan nan nan nan nan nan nan nan nan nan nan nan nan nan nan nan 271 272 272 272 274 276 277 278 277 275 274
nan nan nan nan nan nan nan nan nan nan nan nan nan nan nan nan nan nan nan nan nan nan nan nan nan nan nan nan nan nan nan nan nan nan nan 242 245 nan nan nan nan nan nan nan nan nan nan nan nan nan nan nan nan nan nan nan nan nan nan nan nan nan nan nan nan nan nan nan nan nan nan nan nan nan nan nan 270 271 272 273 275 276 276 277 274 273
nan nan nan nan nan nan nan 269 nan nan nan nan nan nan nan nan nan nan nan nan nan nan nan nan nan nan nan nan nan nan nan nan nan nan nan nan nan nan nan nan nan nan nan nan nan nan nan nan nan nan nan nan nan nan nan nan nan nan nan nan nan nan nan nan nan nan nan nan nan nan nan nan nan nan nan nan nan 270 270 271 272 274 275 274 272 271
nan nan nan nan nan nan nan nan nan nan nan nan nan nan nan nan nan nan nan nan nan nan nan nan nan nan nan nan nan nan nan nan nan nan nan nan nan nan nan nan nan nan nan nan nan nan nan nan nan nan nan nan nan nan nan nan nan nan nan nan nan nan nan nan nan nan nan nan nan nan nan nan nan nan nan nan nan 268 269 271 271 271 272 271 270 270
nan nan nan nan nan nan nan nan nan nan nan nan nan nan nan nan nan nan nan nan nan nan nan nan nan nan nan nan nan nan nan nan nan nan nan nan nan nan nan nan nan nan nan nan nan nan nan nan nan nan nan nan nan nan nan nan nan nan nan nan nan nan nan nan nan nan nan nan nan nan nan nan nan nan nan nan nan nan 267 268 269 270 269 268 269 271
nan nan nan nan nan nan nan nan nan nan nan nan nan nan nan nan nan nan nan nan nan nan nan nan nan nan nan nan nan nan nan nan nan nan nan nan nan nan nan nan nan nan nan nan nan nan nan nan nan nan nan nan nan nan nan nan nan nan nan nan nan nan nan nan nan nan nan nan nan nan nan nan nan nan nan nan nan nan nan nan 267 268 268 267 267 267
nan nan nan nan nan nan nan nan nan nan nan nan nan nan nan nan nan nan nan nan nan nan nan nan nan nan nan nan nan nan nan nan nan nan nan nan nan nan nan nan nan nan nan nan nan nan nan nan nan nan nan nan nan nan nan nan nan nan nan nan nan nan nan nan nan nan nan nan nan nan nan nan nan nan nan nan nan nan nan nan nan 267 266 nan 265 266
nan nan nan nan nan nan nan nan nan nan nan nan nan nan nan nan nan nan nan nan nan nan nan nan nan nan nan nan nan nan nan nan nan nan nan nan nan nan nan nan nan nan nan nan nan nan nan nan nan nan nan nan nan nan nan nan nan nan nan nan nan nan nan nan nan nan nan nan nan nan nan nan nan nan nan nan nan nan nan nan 270 270 268 266 266 266
nan nan nan nan nan nan nan nan nan nan nan nan nan nan nan nan nan nan nan nan nan nan nan nan nan nan nan nan nan nan nan nan nan nan nan nan nan nan nan nan nan nan nan nan nan nan nan nan nan nan nan nan nan nan nan nan nan nan nan nan nan nan nan nan nan nan nan nan nan nan nan nan nan nan nan nan nan nan nan nan nan 271 271 269 268 267
nan nan nan nan nan nan nan nan nan nan nan nan nan nan nan nan nan nan nan nan nan nan nan nan nan nan nan nan nan nan nan nan nan nan nan nan nan nan nan nan nan nan nan nan nan nan nan nan nan nan nan nan nan nan nan nan nan nan nan nan nan nan nan nan nan nan nan nan nan nan nan nan nan nan nan nan nan nan nan nan nan nan 270 270 269 nan
nan nan nan nan nan nan nan nan nan nan nan nan nan nan nan nan nan nan nan nan nan nan nan nan nan nan nan nan nan nan nan nan nan nan nan nan nan nan nan nan nan nan nan nan nan nan nan nan nan nan nan nan nan nan nan nan nan nan nan nan nan nan nan nan nan nan nan nan nan nan nan nan nan nan nan nan nan nan nan nan nan nan nan 269 267 265
nan nan nan nan nan nan nan nan nan nan nan nan nan nan nan nan nan nan nan nan nan nan nan nan nan nan nan nan nan nan nan nan nan nan nan nan nan nan nan nan nan nan nan nan nan nan nan nan nan nan nan nan nan nan nan nan nan nan nan nan nan nan nan nan nan nan nan nan nan nan nan nan nan nan nan nan nan nan nan nan nan 265 nan 268 268 264
nan nan nan nan nan nan nan nan nan nan nan nan nan nan nan nan nan nan nan nan nan nan nan nan nan nan nan nan nan nan nan nan nan nan nan nan nan nan nan nan nan nan nan nan nan nan nan nan nan nan nan nan nan nan nan nan nan nan nan nan nan nan nan nan nan nan nan nan nan nan nan nan nan nan nan nan nan nan nan nan nan nan 264 nan nan nan
nan nan nan nan nan nan nan nan nan nan nan nan nan nan nan nan nan nan nan nan nan nan nan nan nan nan nan nan nan nan nan nan nan nan nan nan nan nan nan nan nan nan nan nan nan nan nan nan nan nan nan nan nan nan nan nan nan nan nan nan nan nan nan nan nan nan nan nan nan nan nan nan nan nan nan nan nan nan nan nan nan nan nan nan nan 260
nan nan nan nan nan nan nan nan nan nan nan nan nan nan nan nan nan nan nan nan nan nan nan nan nan nan nan nan nan nan nan nan nan nan nan nan nan nan nan nan nan nan nan nan nan nan nan nan nan nan nan nan nan nan nan nan nan nan nan nan nan nan nan nan nan nan nan nan nan nan nan nan nan nan nan nan nan nan nan nan nan nan 250 251 nan nan
nan nan nan nan nan nan nan nan nan nan nan nan nan nan nan nan nan nan nan nan nan nan nan nan nan nan nan nan nan nan nan nan nan nan nan nan nan nan nan nan nan nan nan nan nan nan nan nan nan nan nan nan nan nan nan nan nan nan nan nan nan nan nan nan nan nan nan nan nan nan nan nan nan nan nan nan nan nan nan nan nan nan nan nan nan nan